Change the Weather History Date:

Sunday, November 24, 2013

  Actual Average Record
Temperature  
Mean Temperature 31 °F 34 °F  
Max Temperature 56 °F 45 °F 68 °F (1954)
Min Temperature 6 °F 24 °F -10 °F (1993)
Degree Days  
Heating Degree Days 34 31  
Month to date heating degree days 672 640  
Since 1 July heating degree days 1601 1585  
Cooling Degree Days 0 0  
Month to date cooling degree days 0 0  
Year to date cooling degree days 350 222  
Moisture  
Dew Point 14 °F    
Average Humidity 56    
Maximum Humidity 91    
Minimum Humidity 20    
Precipitation  
Precipitation 0.00 in 0.03 in 0.58 in (1960)
Month to date precipitation 0.20 0.75  
Year to date precipitation 4.43 7.53  
Sea Level Pressure  
Sea Level Pressure 30.33 in    
Wind  
Wind Speed 4 mph (SSE)    
Max Wind Speed 10 mph    
Max Gust Speed 12 mph    
Visibility 10 miles    
Events      
T = Trace of Precipitation, MM = Missing Value Source: NWS Daily Summary

Daily Weather History Graph

Daily Weather History Graph

Search for Another Location

Airport or City:

Trip Planner

Search our weather history database for the weather conditions in past years. The results will help you decide how hot, cold, wet, or windy it might be!

Date:

Astronomy

Nov. 24, 2013 Rise Set
Actual Time 7:12 AM PST 4:30 PM PST
Civil Twilight 6:40 AM PST 5:02 PM PST
Nautical Twilight 6:04 AM PST 5:38 PM PST
Astronomical Twilight 5:29 AM PST 6:12 PM PST
Moon 11:08 PM PST (11/24) 11:56 AM PST (11/24)
Length of Visible Light 10h 22m
Length of Day
9h 17m
Waning Gibbous, 59% of the Moon is Illuminated
Nov 24
Waning Gibbous
Nov 25
Last Quarter
Dec 2
New
Dec 9
First Quarter
Dec 17
Full

Hourly Weather History & Observations

Time (PST) Temp. Windchill Dew Point Humidity Pressure Visibility Wind Dir Wind Speed Gust Speed Precip Events Conditions
12:56 AM 12.9 °F 6.9 °F 8.1 °F 81% 30.35 in 10.0 mi SSW 3.5 mph - N/A   Clear
1:56 AM 9.0 °F 0.6 °F 6.1 °F 88% 30.35 in 10.0 mi SSE 4.6 mph - N/A   Clear
2:56 AM 9.0 °F 0.6 °F 6.1 °F 88% 30.35 in 10.0 mi SSE 4.6 mph - N/A   Clear
3:56 AM 10.0 °F - 7.0 °F 87% 30.35 in 10.0 mi Calm Calm - N/A   Clear
4:56 AM 9.0 °F - 7.0 °F 92% 30.36 in 10.0 mi Calm Calm - N/A   Clear
5:56 AM 10.0 °F - 7.0 °F 87% 30.36 in 10.0 mi Calm Calm - N/A   Clear
6:56 AM 9.0 °F -0.9 °F 7.0 °F 92% 30.37 in 10.0 mi South 5.8 mph - N/A   Clear
7:56 AM 12.9 °F 6.9 °F 9.0 °F 84% 30.37 in 10.0 mi SE 3.5 mph - N/A   Clear
8:56 AM 23.0 °F - 14.0 °F 68% 30.35 in 10.0 mi Calm Calm - N/A   Clear
9:56 AM 33.1 °F - 17.1 °F 52% 30.33 in 10.0 mi Calm Calm - N/A   Clear
10:56 AM 42.1 °F 40.2 °F 18.0 °F 38% 30.30 in 10.0 mi ESE 3.5 mph - N/A   Clear
11:56 AM 50.0 °F - 17.1 °F 27% 30.26 in 10.0 mi Variable 5.8 mph - N/A   Clear
12:56 PM 52.0 °F - 19.9 °F 28% 30.24 in 10.0 mi North 6.9 mph - N/A   Clear
1:56 PM 54.0 °F - 18.0 °F 24% 30.24 in 10.0 mi ENE 4.6 mph - N/A   Clear
2:56 PM 55.9 °F - 16.0 °F 21% 30.24 in 10.0 mi Variable 3.5 mph - N/A   Clear
3:56 PM 46.0 °F 43.1 °F 19.9 °F 35% 30.27 in 10.0 mi NNW 5.8 mph - N/A   Clear
4:56 PM 37.9 °F 32.7 °F 19.0 °F 47% 30.30 in 10.0 mi NW 6.9 mph - N/A   Clear
5:56 PM 33.1 °F 27.7 °F 19.0 °F 56% 30.33 in 10.0 mi West 5.8 mph - N/A   Clear
6:56 PM 30.0 °F 26.5 °F 18.0 °F 61% 30.36 in 10.0 mi SW 3.5 mph - N/A   Clear
7:56 PM 25.0 °F 18.1 °F 16.0 °F 69% 30.38 in 10.0 mi South 5.8 mph - N/A   Clear
8:56 PM 25.0 °F 20.7 °F 16.0 °F 69% 30.37 in 10.0 mi SSE 3.5 mph - N/A   Clear
9:56 PM 23.0 °F 18.4 °F 15.1 °F 72% 30.36 in 10.0 mi SSE 3.5 mph - N/A   Clear
10:56 PM 18.0 °F 12.7 °F 12.9 °F 81% 30.36 in 10.0 mi East 3.5 mph - N/A   Clear
11:56 PM 19.9 °F 14.9 °F 14.0 °F 78% 30.35 in 10.0 mi South 3.5 mph - N/A   Clear